Theta_e
348 345 344 344 343 342 340 340 339 338 337 337 336 334 333 332 336 338 339 340 339 338 337 337 336 335 334 333 332 332 331 331 331 331 331 331 331 332 333 333 334 333 333 331 330 325 316 316 318 318 317 317 315 314 316 317 317 316 316 316 313 314 313 313 314 315 315 315 314 314 314 315 313 313 315 321 325 319 313 315 317 319 319 319 316
348 346 344 343 342 341 340 340 339 338 338 337 335 334 332 331 334 338 339 339 339 338 337 337 337 336 334 334 333 333 332 332 332 332 332 332 332 333 334 335 335 335 334 333 334 332 323 318 317 316 318 317 315 313 313 313 313 314 314 314 312 312 313 314 314 315 315 315 316 316 314 313 314 313 313 315 317 315 313 314 314 314 315 315 313
348 345 344 343 341 339 339 340 338 338 337 337 335 332 331 330 333 337 338 339 339 338 338 337 336 336 335 335 334 334 333 332 333 333 333 332 333 333 334 335 336 336 336 335 335 335 331 325 319 316 317 317 316 313 312 312 311 311 312 311 311 312 313 314 314 315 314 315 317 318 316 313 314 313 313 313 315 314 313 313 313 314 315 314 311
347 344 343 342 340 339 339 339 338 338 337 335 333 332 331 331 332 334 337 338 339 338 338 337 337 336 335 335 334 334 334 333 333 333 333 333 333 333 334 335 336 336 336 336 336 336 334 330 324 318 315 316 316 314 312 311 311 311 311 311 311 314 315 315 315 316 316 317 319 320 319 318 315 312 313 314 314 314 313 312 312 313 313 312 311
345 343 343 342 339 338 339 339 338 337 337 334 333 332 332 332 331 333 336 338 338 338 338 337 337 336 335 335 334 334 334 333 333 333 334 334 334 333 334 335 335 336 336 335 336 337 336 335 330 323 317 316 316 314 313 312 311 310 310 313 314 316 317 319 319 320 320 320 321 320 322 326 321 313 312 313 315 314 313 313 312 312 312 311 311
343 343 343 340 338 339 339 339 338 337 335 333 332 332 331 330 330 332 334 337 338 338 337 337 337 336 335 333 333 335 334 333 333 332 333 333 333 332 333 333 334 334 335 335 337 336 336 335 332 329 324 320 318 315 313 313 312 310 311 315 317 318 321 323 324 325 326 325 326 323 324 331 328 318 312 313 315 315 314 313 313 312 311 312 311
342 343 342 339 339 339 339 339 338 336 333 332 332 330 328 327 329 331 333 335 337 337 337 337 337 336 334 332 333 334 334 332 332 332 332 332 331 331 330 330 331 332 333 334 336 336 335 334 333 332 329 326 325 320 314 313 313 311 313 318 319 322 325 328 330 332 334 334 334 330 328 333 331 320 314 314 315 314 314 313 313 312 312 312 311
343 343 341 339 339 340 339 338 337 335 333 332 331 328 326 326 327 330 331 334 335 336 336 336 337 335 333 332 333 334 332 331 330 330 329 328 327 326 326 325 326 327 330 331 332 333 332 332 333 332 329 327 327 323 316 313 313 312 315 320 322 326 329 332 334 336 337 337 336 332 332 335 332 322 315 314 314 314 313 313 313 312 311 311 311
344 342 341 340 340 340 338 338 336 334 333 332 329 327 327 326 327 329 330 332 333 335 335 335 335 333 332 332 333 333 331 329 328 326 325 325 324 324 323 322 321 322 325 326 326 327 329 332 332 330 327 327 325 322 317 314 313 313 317 321 325 330 333 334 335 336 336 336 336 334 335 336 332 325 316 313 315 314 313 313 312 312 311 311 311
343 342 341 340 340 339 338 337 335 333 333 331 329 328 329 328 328 329 329 330 331 332 333 333 333 331 331 331 331 330 329 327 326 325 325 326 326 327 327 324 322 324 325 326 327 327 330 332 331 330 328 326 325 322 317 315 314 313 316 323 329 333 334 335 335 335 334 334 335 335 336 335 333 328 318 312 314 313 313 313 312 312 312 311 311
342 342 341 340 340 338 338 337 335 333 333 331 328 328 330 328 328 328 328 329 329 330 330 331 330 329 329 329 329 328 327 325 326 327 328 328 328 328 327 326 325 326 326 327 327 328 330 330 330 331 330 327 326 324 318 313 315 313 316 324 330 333 334 335 335 334 332 334 335 335 335 335 333 329 323 314 312 314 313 313 312 312 311 311 311
342 342 340 340 339 338 337 336 334 333 332 331 328 328 330 330 329 327 328 328 328 328 328 328 328 327 327 327 327 326 325 325 327 329 329 330 329 328 326 326 326 327 326 325 325 325 326 327 329 329 329 329 326 325 320 312 313 314 315 322 329 333 335 334 334 332 331 334 334 333 333 334 331 330 326 314 311 314 313 313 312 311 311 310 310
343 342 340 340 339 338 337 335 334 333 333 331 329 328 329 330 330 328 328 327 327 327 327 327 327 327 327 327 327 326 325 327 329 330 330 330 329 329 326 325 325 325 326 325 325 324 324 324 325 326 329 329 326 325 322 313 311 314 313 319 328 333 334 334 333 332 333 334 334 332 332 333 333 331 323 312 311 313 313 313 313 312 311 310 310
343 342 340 339 339 338 337 335 334 333 333 332 329 328 328 329 329 329 328 327 327 327 327 327 327 327 328 328 327 327 326 328 330 331 331 330 330 329 328 326 324 324 325 326 327 328 327 324 322 323 326 326 324 323 322 317 311 313 313 316 327 333 333 333 332 332 334 334 333 332 333 333 333 328 316 310 312 312 313 313 312 312 311 310 310
345 342 340 339 338 338 336 334 334 333 333 332 331 329 328 328 328 329 328 328 328 328 328 328 327 327 328 329 328 328 328 329 330 331 331 331 330 329 328 326 324 323 324 326 329 330 328 327 324 321 320 321 322 321 321 318 312 313 313 315 325 332 333 333 332 332 333 333 332 332 333 332 330 324 313 310 313 312 313 313 313 312 311 311 309
345 342 340 339 338 337 335 333 333 333 333 332 331 329 328 328 328 328 328 328 328 328 328 328 328 328 329 329 328 329 330 331 330 330 329 330 330 329 328 326 325 324 324 325 328 329 328 329 327 322 320 318 318 318 319 316 312 313 313 318 327 331 332 333 332 332 332 332 331 331 330 329 326 319 312 310 312 312 313 312 312 312 311 310 309
344 341 339 338 338 337 335 333 333 333 333 333 332 330 329 328 328 328 328 328 328 329 329 329 329 328 328 328 329 329 329 330 328 328 327 327 328 328 327 325 324 325 324 323 324 327 328 329 328 326 324 319 315 315 316 315 312 312 315 323 330 331 332 332 332 330 331 332 331 331 330 328 321 313 311 311 311 312 312 312 311 311 311 310 309
344 341 339 338 338 337 336 334 334 334 334 333 332 331 330 329 329 328 328 329 329 329 329 329 329 328 329 329 329 328 328 329 328 327 327 326 326 326 325 324 323 322 322 319 320 325 328 328 327 327 325 320 315 313 315 315 313 311 317 327 331 331 332 332 331 330 331 331 331 331 330 328 321 312 310 310 310 312 311 311 311 311 310 309 309
343 341 339 338 338 337 337 336 335 334 333 333 332 332 331 330 329 329 329 329 330 330 329 330 330 329 329 329 328 328 328 328 328 328 327 327 326 325 323 322 322 320 320 319 317 320 325 326 325 324 321 319 316 312 314 316 313 310 319 329 331 331 331 330 330 329 329 329 328 329 328 327 324 315 311 310 310 311 311 311 311 310 310 309 309
343 341 339 338 338 337 337 337 335 334 333 333 333 332 331 331 331 330 330 330 330 330 331 331 331 330 330 329 329 328 328 329 329 329 329 328 327 326 324 323 322 321 321 320 318 316 319 324 325 322 320 319 316 313 314 317 314 310 322 331 330 331 331 329 329 328 329 328 327 327 326 324 324 318 311 310 310 311 311 310 310 309 309 309 308
343 341 340 338 338 338 338 337 336 335 334 334 332 332 332 332 331 331 331 331 331 331 331 331 331 332 331 330 329 329 329 329 329 329 329 329 329 328 325 323 320 320 321 320 318 316 316 321 325 322 319 319 315 314 313 316 316 312 322 330 329 330 330 329 329 329 329 328 327 327 324 320 320 317 311 311 310 310 311 310 310 308 308 308 307
343 342 340 339 338 338 338 338 337 336 336 335 333 333 333 332 331 332 332 332 331 331 330 331 332 332 331 330 329 330 330 330 330 330 330 329 330 328 325 323 319 318 320 319 318 318 318 320 325 322 320 319 314 316 316 316 317 314 320 328 329 328 329 330 330 329 328 327 327 327 326 321 318 314 311 311 310 310 310 310 310 308 307 307 306
343 341 340 339 338 338 338 338 338 337 337 336 335 334 333 332 331 332 333 332 331 331 331 331 331 331 331 330 330 330 330 330 330 330 330 329 330 329 326 323 320 318 319 320 320 320 320 320 322 321 320 319 315 321 323 320 320 316 317 322 324 324 327 330 330 329 328 327 327 327 328 324 318 312 311 312 311 310 310 310 308 308 307 306 306
342 341 340 339 338 337 337 338 337 336 336 337 336 336 333 333 332 333 333 332 332 332 331 331 331 331 331 331 330 331 330 330 330 330 330 329 330 329 327 325 322 320 320 323 326 324 321 320 320 321 320 317 319 325 327 325 322 320 322 323 322 323 327 331 331 330 329 329 329 328 328 323 315 311 311 312 311 311 310 310 309 307 306 306 306
341 340 340 338 338 337 336 337 337 336 336 336 337 337 335 334 334 334 334 333 333 332 332 332 331 331 331 331 331 330 330 330 330 330 330 329 331 330 329 328 327 326 325 325 330 329 325 322 320 322 322 320 323 327 328 328 325 325 329 330 328 328 330 331 331 331 331 330 330 329 327 318 311 309 310 312 311 311 310 310 309 307 307 306 305
340 339 338 337 338 338 337 337 336 336 335 335 336 336 335 335 334 334 335 334 333 333 333 333 331 331 331 331 331 331 330 330 329 329 329 330 331 330 330 330 330 330 328 328 330 330 328 327 323 322 323 326 327 328 328 328 327 327 330 330 330 329 330 331 331 331 331 330 330 330 325 315 310 309 308 310 311 310 310 309 309 308 307 306 306
339 339 337 336 336 337 336 336 336 335 335 334 334 335 335 334 333 333 334 334 334 334 334 333 333 332 332 331 331 331 330 329 329 328 329 331 331 331 331 331 330 331 330 331 331 329 329 330 327 323 323 326 328 329 329 327 327 327 328 329 329 329 330 331 331 331 331 330 330 330 326 317 312 309 307 307 308 309 309 309 309 308 307 307 306
338 338 336 335 335 335 335 335 335 335 334 334 334 334 334 333 332 332 332 333 334 334 333 334 333 333 332 331 331 331 331 330 329 329 330 332 332 330 331 330 331 331 331 331 331 329 329 330 330 328 325 326 328 329 329 328 327 326 327 328 328 330 331 331 332 331 331 330 330 330 327 321 315 311 309 307 306 307 308 308 308 307 307 307 306
338 337 336 334 334 335 334 334 334 334 333 333 333 333 333 332 331 330 330 331 332 332 332 332 333 333 332 332 332 331 331 331 331 331 332 332 331 330 330 329 330 331 330 330 330 330 330 330 330 329 327 327 328 329 328 327 327 326 327 328 327 329 330 331 332 331 331 331 330 330 329 326 320 315 311 309 306 306 306 306 306 307 307 307 306
337 336 335 334 334 335 334 333 333 333 332 333 333 334 333 332 332 331 331 331 332 333 332 331 332 333 334 333 332 330 330 332 332 331 332 332 331 329 328 328 329 329 329 330 330 330 330 330 330 329 329 328 328 329 328 327 327 325 326 327 328 329 329 330 331 331 331 331 331 330 330 329 324 318 315 312 308 306 306 306 305 306 306 306 306
336 334 333 333 332 333 333 333 333 332 331 332 333 333 333 332 331 331 331 330 331 332 332 332 333 335 334 333 331 330 330 331 331 330 330 332 331 329 326 326 328 329 328 330 330 330 330 330 330 330 330 329 329 329 328 328 328 326 325 327 328 328 328 328 330 331 331 331 331 331 330 330 327 323 321 318 314 310 307 307 306 306 306 306 305
336 333 331 331 330 331 332 332 331 330 331 331 331 330 330 331 331 331 331 331 331 330 330 332 333 333 332 330 331 331 332 332 330 328 329 331 331 329 326 326 327 327 327 329 330 330 330 330 330 330 330 329 329 329 329 330 329 327 326 326 327 328 328 328 328 331 331 331 331 331 330 330 329 328 328 326 322 317 312 310 308 307 307 307 306
334 332 332 330 329 331 331 330 330 329 330 330 329 328 327 329 329 329 330 331 332 331 331 332 331 331 330 331 332 332 331 330 329 326 326 328 330 329 328 327 327 326 325 326 329 330 330 330 330 329 329 330 330 329 329 329 330 329 329 328 329 329 329 329 329 330 331 330 330 330 330 329 329 329 329 329 328 325 321 318 314 312 311 309 308
332 332 330 330 330 331 331 330 330 330 330 330 330 328 328 329 327 328 330 330 331 331 331 332 330 330 330 331 331 331 330 329 327 326 324 326 328 328 328 328 327 326 324 325 327 329 330 330 329 329 329 328 328 329 329 329 329 330 330 329 329 329 329 329 329 329 330 330 330 329 329 329 328 329 329 330 330 330 328 326 324 322 319 316 313
332 332 329 330 330 330 330 328 327 330 331 329 329 329 328 328 328 329 328 328 330 331 331 331 331 329 329 329 329 330 330 329 329 328 326 327 327 327 328 328 327 327 326 325 327 329 329 329 329 328 328 327 325 327 329 328 329 329 329 330 330 330 329 329 329 329 329 329 330 330 329 329 329 328 328 329 330 330 331 330 329 328 327 325 322
332 331 330 330 330 328 327 321 319 326 327 324 326 328 328 328 329 328 326 325 327 328 329 330 330 328 328 329 328 328 328 329 330 329 329 328 327 327 327 327 327 327 326 325 327 330 330 329 328 327 328 327 324 325 327 327 328 328 329 330 330 330 330 329 329 329 329 329 329 330 329 329 329 328 328 327 328 329 330 331 331 330 329 329 328
331 331 330 329 329 323 318 315 315 318 317 317 320 326 330 329 328 327 325 326 326 324 326 327 329 329 329 329 327 326 327 327 327 328 329 328 326 327 326 325 326 327 325 324 325 328 330 328 328 327 327 329 326 324 325 326 327 326 327 328 328 329 329 329 329 329 328 329 329 329 329 329 329 328 328 327 327 327 328 330 330 330 329 328 328
330 330 328 326 324 318 314 314 313 313 312 313 317 322 325 324 325 328 327 328 327 326 326 324 325 328 328 328 328 327 328 328 327 327 329 328 326 326 326 327 327 325 324 324 325 327 329 328 327 328 328 329 328 327 326 326 326 325 325 325 326 326 326 326 327 328 329 328 328 329 329 329 329 328 328 328 327 328 327 328 329 328 329 329 329
328 327 324 322 319 316 314 313 312 311 312 313 316 320 321 320 323 326 326 327 327 327 326 324 325 327 328 328 329 329 329 330 329 328 329 328 327 326 327 328 326 325 325 324 326 327 328 328 328 328 329 329 329 328 327 326 325 325 325 325 324 325 325 325 325 327 328 328 328 328 329 329 328 327 328 328 329 328 328 328 328 328 328 329 329
325 322 322 320 318 316 314 312 312 312 313 314 317 320 322 322 323 323 323 324 325 326 325 324 324 325 327 328 329 329 329 329 329 328 328 327 327 327 327 327 325 325 327 327 326 328 329 328 328 328 328 329 329 328 328 326 326 326 326 326 325 324 324 324 324 324 325 326 327 328 328 328 327 327 327 329 329 329 329 328 328 329 328 328 328
325 320 320 321 318 315 313 312 312 312 315 317 319 322 323 323 324 324 324 322 322 323 324 324 323 322 324 325 324 325 324 324 324 323 323 324 325 326 326 325 324 325 327 328 328 329 329 328 328 328 328 328 328 328 327 326 325 325 325 325 325 324 323 322 322 322 322 323 324 326 327 327 326 327 328 328 329 329 328 328 328 329 329 328 328
326 320 319 319 316 314 314 313 312 312 316 320 323 324 323 323 323 322 322 321 321 321 323 324 322 319 319 318 317 318 317 316 319 320 321 321 321 325 326 323 323 324 325 328 328 328 329 328 328 328 328 328 328 327 326 325 324 323 324 325 325 325 323 322 321 320 320 320 321 323 326 327 327 326 326 327 328 328 328 328 328 328 329 329 328
328 323 319 317 315 315 315 313 313 313 317 321 324 324 322 323 322 321 320 319 321 322 320 316 314 312 311 314 317 319 317 316 320 323 323 322 320 322 325 325 324 325 325 326 328 328 328 328 327 327 327 327 327 327 325 325 325 323 323 324 325 324 322 321 321 320 321 320 320 321 323 326 326 326 326 326 327 327 327 328 328 328 328 328 329
327 325 323 319 316 317 316 315 313 313 319 323 325 324 322 323 323 322 321 320 320 320 315 309 308 307 309 316 321 321 320 320 322 324 324 323 322 322 324 325 325 324 325 325 326 327 328 328 327 327 327 327 327 327 325 325 325 323 324 325 324 322 320 320 321 321 321 321 320 320 322 324 325 325 326 325 325 326 326 327 327 328 328 328 328
327 327 326 324 322 319 318 318 314 313 320 324 324 323 322 322 323 322 322 321 318 316 312 309 308 308 309 315 321 322 322 322 321 322 323 323 323 322 322 324 324 323 324 323 323 324 325 326 327 327 327 327 327 327 326 326 325 323 323 325 323 321 320 321 321 321 321 321 320 320 320 321 322 322 323 322 322 324 325 326 327 327 328 328 327
327 327 327 327 327 325 322 322 316 313 320 323 321 321 321 320 320 320 320 317 316 314 310 308 309 309 309 311 316 320 321 320 318 318 321 323 322 322 323 323 322 322 323 322 322 323 324 324 325 326 327 327 326 326 326 325 325 324 323 324 323 322 321 322 322 322 322 322 321 321 322 321 321 320 320 320 320 321 322 324 326 327 327 327 328
328 327 328 328 329 328 326 326 320 314 318 321 317 316 317 316 314 315 314 312 313 313 310 308 308 308 308 308 311 314 316 316 317 316 319 321 321 322 323 323 323 322 322 322 321 322 323 323 323 324 325 325 325 326 326 325 325 325 324 324 323 322 322 322 322 322 322 322 321 322 323 323 323 321 320 319 319 320 321 322 323 324 326 327 327
328 327 328 328 329 329 328 328 325 318 314 317 316 313 312 312 311 311 312 312 311 311 311 310 308 307 307 307 308 310 310 311 313 314 316 319 320 321 320 320 322 322 322 322 319 319 322 322 322 323 323 323 324 325 325 325 325 325 324 324 323 323 322 322 321 322 322 322 322 322 323 323 323 322 322 320 318 317 318 320 321 320 321 324 326
327 327 327 328 328 329 328 327 326 323 316 314 315 312 310 310 311 312 314 314 311 311 313 310 308 308 307 307 307 307 307 306 307 309 311 316 319 318 316 315 318 320 321 320 318 320 321 321 321 321 321 322 323 323 323 323 323 323 323 323 322 322 322 322 322 322 322 322 322 322 321 321 321 319 318 317 316 315 315 317 320 318 315 316 320
327 328 328 328 328 328 329 326 322 323 320 315 314 312 310 312 314 315 315 316 314 312 312 310 310 310 307 307 307 306 307 306 306 306 307 312 315 315 314 312 309 311 313 312 313 318 320 320 320 319 320 321 321 322 322 322 322 321 321 322 321 321 321 321 321 322 321 320 320 320 320 319 317 314 313 314 313 312 311 311 315 316 314 312 313
327 328 328 329 328 328 329 326 321 322 323 318 315 312 312 315 316 316 315 314 313 311 310 310 311 310 307 307 307 307 307 306 306 306 306 307 310 310 310 308 305 305 305 304 305 309 312 315 315 313 316 319 319 319 319 317 318 318 319 319 320 321 320 320 320 320 319 319 319 318 315 313 312 311 312 312 311 309 309 309 311 312 313 314 313
Wind_Speed
21 20 22 23 21 20 18 19 19 19 18 17 16 16 15 15 16 15 14 13 13 13 13 14 13 13 14 14 15 14 14 15 16 17 16 15 15 15 15 15 15 15 14 13 12 11 11 11 11 10 10 9 9 9 10 10 10 11 12 13 14 13 13 13 12 12 14 14 12 11 12 15 17 18 20 20 18 16 16 16 18 18 18 18 18
24 22 22 23 22 20 19 20 19 18 18 16 16 16 16 16 16 15 14 13 12 13 13 13 12 13 13 13 14 13 12 12 14 15 15 14 14 14 14 14 14 14 14 13 12 10 9 10 9 9 9 9 9 9 10 11 11 11 13 13 13 13 13 13 11 12 13 13 12 12 13 14 16 17 19 19 18 16 15 17 18 19 18 17 18
24 24 23 24 22 21 20 19 19 18 17 16 16 16 17 16 16 15 14 13 12 12 12 12 12 12 12 12 13 12 12 11 11 13 13 13 13 12 13 13 13 13 13 12 12 10 7 8 8 8 8 8 9 9 10 11 12 12 13 13 13 13 13 13 11 12 11 10 10 11 13 13 14 16 18 18 17 15 16 18 18 18 18 17 18
24 25 25 25 23 21 20 20 19 18 17 17 16 17 17 16 16 15 14 13 12 11 11 11 11 11 11 11 11 11 12 11 10 10 11 11 11 11 12 12 12 11 11 11 11 10 7 6 7 8 8 8 9 9 9 10 11 12 13 14 14 14 14 12 11 10 9 8 7 9 13 14 13 15 17 18 17 16 17 18 18 18 17 17 18
25 26 26 26 24 22 21 20 19 18 18 17 17 17 17 17 16 15 15 13 12 11 10 10 10 10 10 10 10 10 11 10 9 8 8 10 10 10 10 10 10 10 10 10 10 10 7 5 5 7 8 8 9 9 9 10 11 12 13 15 16 15 14 13 11 9 7 5 4 6 10 13 13 13 15 16 16 16 18 17 17 17 16 16 17
26 27 27 26 24 22 21 20 19 18 18 17 17 17 17 17 16 16 14 13 12 11 10 9 9 9 9 9 9 9 9 9 8 7 7 8 9 9 9 9 9 9 9 9 9 9 7 4 5 7 9 9 8 8 10 10 11 12 15 17 17 16 15 14 13 11 8 6 4 4 6 12 15 12 12 15 15 17 17 17 17 17 16 16 16
26 27 26 25 24 23 21 20 20 19 18 17 16 16 17 17 16 16 14 14 12 11 10 9 9 8 8 9 9 9 8 8 8 7 7 8 8 8 8 8 7 7 8 8 8 8 5 3 4 6 8 9 8 8 10 11 11 13 17 18 19 18 17 16 14 13 10 8 5 2 5 12 15 12 11 12 15 16 17 16 17 17 16 15 16
26 26 25 25 23 23 21 20 20 19 18 17 17 17 17 17 17 16 15 14 13 12 10 9 9 8 8 9 9 9 8 8 8 8 8 8 7 6 6 7 7 6 7 7 7 6 4 3 4 5 6 6 6 7 10 12 13 15 18 19 20 20 19 18 15 14 11 9 4 1 6 12 12 12 12 10 13 16 16 16 16 16 15 14 15
25 25 24 24 23 23 21 20 20 19 18 17 17 18 18 18 17 17 16 14 13 12 11 10 9 8 9 10 10 9 8 8 9 9 8 7 6 6 6 6 7 6 6 5 6 6 5 3 2 2 3 4 4 5 8 12 14 16 19 20 21 22 20 18 15 13 10 8 4 2 7 9 8 11 13 8 12 16 15 15 15 15 14 14 15
24 24 24 23 23 23 21 20 20 19 18 17 18 19 19 19 18 18 17 15 14 13 12 11 10 9 10 10 10 9 9 9 9 9 8 7 6 6 6 7 7 7 6 5 5 6 6 3 0 2 2 2 2 3 5 10 14 16 19 21 23 23 20 17 14 11 8 5 4 6 6 7 8 9 12 8 10 15 14 14 13 14 14 13 15
23 24 23 23 23 22 21 20 19 19 18 17 18 18 18 18 19 18 17 16 15 14 13 12 11 11 11 10 10 9 10 9 9 8 7 6 6 6 7 7 7 8 7 6 4 4 5 3 1 2 2 1 1 2 3 7 12 15 19 21 22 22 19 16 13 9 6 6 6 4 5 8 10 8 10 8 8 13 13 13 13 13 13 13 14
23 23 23 23 23 21 20 20 19 19 18 17 17 18 18 18 17 17 17 16 15 14 14 13 12 12 12 11 10 10 9 8 8 7 6 6 6 6 7 7 7 7 7 6 4 3 3 2 1 1 0 1 1 2 4 6 10 14 18 21 21 20 19 16 12 9 7 6 2 2 3 6 7 7 7 5 7 11 12 12 12 12 13 14 14
21 22 22 22 23 22 20 20 19 18 18 17 17 17 17 17 16 16 16 15 15 14 14 13 12 12 11 11 11 10 9 8 7 6 5 5 4 5 6 6 7 7 7 6 5 4 3 2 2 1 0 1 1 0 3 6 9 13 17 20 21 19 18 15 10 9 8 5 1 2 1 2 4 7 4 4 7 10 12 11 11 12 13 14 13
20 22 21 22 22 21 20 20 19 18 18 17 17 17 17 17 16 16 15 15 14 14 14 13 12 12 11 11 10 10 9 8 6 5 5 4 4 4 5 6 6 6 6 5 6 6 5 3 2 1 0 1 1 0 2 5 8 12 16 20 20 18 16 14 10 8 9 5 3 3 2 1 4 5 3 7 7 9 11 11 11 11 12 13 13
19 22 21 21 22 21 20 20 19 18 17 17 17 17 17 17 16 15 15 14 14 13 12 12 11 11 11 10 10 9 8 8 7 6 5 5 4 4 5 5 5 5 6 5 5 6 5 4 3 3 1 1 0 1 2 4 7 11 16 20 19 17 16 14 9 7 7 4 4 3 2 2 3 2 5 7 7 9 10 11 11 10 11 12 12
17 21 21 21 22 22 21 20 19 18 17 17 17 17 17 16 16 15 15 14 13 12 11 11 11 11 10 10 10 9 9 8 8 7 6 5 4 4 4 4 4 5 6 6 5 4 4 4 3 5 5 3 1 1 3 4 6 11 18 21 20 17 15 14 10 7 5 4 5 3 3 2 3 3 7 7 7 9 10 11 11 10 10 11 12
18 21 21 21 22 22 21 20 19 18 17 16 16 16 16 16 16 15 14 13 12 11 11 10 10 11 10 10 10 9 9 9 9 8 6 5 5 4 3 3 3 4 5 5 4 3 3 4 3 4 5 5 4 2 3 6 7 11 19 21 19 17 15 14 10 7 5 4 4 2 2 2 3 5 7 7 7 9 10 10 11 10 9 10 11
19 20 20 21 21 21 20 20 19 17 16 16 16 15 15 15 15 15 14 13 11 11 10 9 10 10 10 9 9 9 9 10 9 8 7 6 5 4 3 3 4 4 3 3 3 2 2 3 3 2 4 5 5 3 4 8 9 13 21 21 18 16 14 12 10 7 4 5 4 2 2 1 2 5 6 7 7 8 9 9 10 10 9 9 10
20 20 20 20 20 20 19 18 18 17 16 15 15 15 14 14 14 14 13 12 11 11 10 9 9 9 9 8 8 8 8 8 8 7 7 5 4 4 3 3 4 3 2 2 2 2 2 2 3 2 3 4 5 4 4 8 11 16 22 20 18 16 13 11 9 7 3 5 5 5 4 3 1 3 4 7 7 7 9 9 9 9 9 9 9
20 21 21 20 19 19 19 18 17 17 16 15 14 15 14 14 13 13 12 11 11 10 9 8 8 8 8 8 7 6 6 7 7 7 6 4 4 4 3 3 3 2 2 1 1 1 1 2 3 2 2 4 5 5 5 7 11 17 22 21 19 16 12 9 6 5 3 2 3 5 5 5 3 2 4 7 7 7 8 8 8 9 9 8 9
21 22 21 20 20 19 19 18 18 17 16 15 15 15 14 14 13 13 12 10 9 9 9 8 8 8 9 8 7 6 5 5 5 5 4 4 4 4 3 2 2 3 2 1 0 1 1 3 3 2 2 3 6 8 7 7 9 15 22 20 19 16 12 7 4 3 2 0 1 4 4 4 3 2 4 7 8 7 7 8 8 8 8 8 8
21 21 19 18 19 19 18 18 18 17 16 15 14 14 14 15 14 13 11 9 9 9 9 9 9 8 9 8 7 7 5 4 4 3 3 4 4 3 2 2 2 3 3 1 0 1 1 3 4 4 4 4 7 11 12 10 9 12 18 18 17 15 12 6 2 2 2 2 3 5 5 4 4 2 4 7 8 7 7 7 7 8 8 7 7
21 21 19 17 17 18 18 17 17 16 16 15 14 14 14 14 14 13 10 10 11 11 11 10 10 9 8 8 8 7 4 4 3 2 2 3 3 3 2 2 3 3 2 2 1 1 2 4 5 6 7 7 10 13 14 13 11 10 13 15 14 12 10 5 2 2 2 3 4 5 6 6 5 3 3 6 8 8 7 7 8 8 8 7 7
20 20 19 17 15 17 17 18 17 15 16 14 15 15 15 15 14 13 11 12 12 12 12 11 11 10 9 9 8 7 5 4 3 2 3 2 2 3 3 2 3 3 3 2 2 2 3 5 5 7 10 10 11 11 10 11 11 12 11 9 10 11 8 4 2 3 3 3 4 5 6 6 4 2 3 5 8 8 7 7 8 8 8 8 7
19 19 19 17 15 15 16 17 16 15 14 13 14 15 15 16 14 13 12 13 14 14 13 12 13 11 10 10 10 8 7 6 4 4 4 2 3 4 4 3 4 4 4 3 3 3 4 5 6 9 13 13 12 8 7 9 11 12 11 7 7 9 6 2 3 3 3 4 6 6 5 4 3 1 1 3 6 8 7 7 7 8 8 7 7
18 18 18 17 16 15 14 15 14 13 12 11 13 14 15 16 14 13 13 14 15 15 13 14 15 13 11 12 12 11 9 8 7 6 5 4 5 5 4 3 4 4 4 5 4 5 6 6 7 10 14 14 10 7 7 9 11 10 9 7 5 6 5 5 4 5 5 5 6 4 4 3 3 3 2 1 3 6 7 7 7 7 7 7 7
16 16 16 14 14 14 12 12 11 11 11 10 11 12 14 14 12 12 12 13 14 14 14 16 17 15 13 12 13 13 11 10 9 7 6 6 6 5 4 3 4 4 3 6 6 7 8 6 6 9 13 13 10 8 7 7 9 8 7 5 4 6 5 6 5 6 6 6 5 3 3 3 4 4 4 3 1 3 5 6 7 7 7 7 6
16 15 15 14 13 12 11 11 11 10 11 11 11 12 13 12 10 10 10 12 13 13 13 15 17 16 14 12 13 14 12 11 10 8 7 7 6 5 5 3 5 5 4 5 6 7 8 7 6 7 10 12 10 9 8 8 8 7 7 6 6 7 4 4 6 6 5 5 4 2 2 3 3 3 3 3 2 1 3 5 6 7 7 7 6
14 13 12 13 13 13 12 12 10 9 9 9 11 11 12 12 11 10 11 11 11 12 12 13 15 16 15 13 13 14 13 11 10 9 7 7 6 5 5 4 6 7 5 5 6 7 8 7 5 5 6 9 9 9 12 11 10 12 11 8 7 8 6 2 4 5 5 6 5 3 2 2 2 2 2 2 2 1 0 3 5 6 7 7 7
10 12 13 14 13 14 12 11 10 9 10 9 8 9 10 11 11 10 11 12 11 11 11 11 13 15 14 13 12 12 12 11 11 10 8 8 7 6 5 5 7 6 4 5 8 7 7 7 5 4 5 6 7 7 11 12 11 14 14 10 8 8 9 5 5 7 7 7 5 3 3 3 2 2 2 2 2 1 1 1 3 4 6 7 8
11 13 15 15 14 14 12 11 12 10 10 9 8 8 8 9 9 10 10 11 12 11 11 10 11 13 11 10 10 11 12 13 13 11 10 11 9 7 5 6 7 5 4 6 9 8 6 6 6 7 6 7 7 6 10 10 8 13 14 12 10 8 9 7 7 8 6 6 5 4 3 4 3 3 3 2 2 1 1 1 1 2 3 4 5
14 14 13 14 14 15 15 14 14 12 11 11 9 8 8 7 6 6 6 8 11 11 12 12 12 12 10 11 14 14 14 14 13 10 10 12 10 7 6 6 7 6 5 6 8 9 9 8 7 9 9 9 11 9 10 9 8 12 14 13 12 9 9 8 6 7 7 6 7 5 4 4 4 4 4 3 2 1 1 1 1 1 1 2 2
14 16 16 15 17 18 18 15 13 13 13 11 8 8 10 8 6 5 5 6 9 11 13 14 12 12 12 13 15 15 14 13 12 10 9 11 10 8 7 7 8 7 6 5 8 10 11 10 9 11 10 10 13 13 12 12 12 12 13 14 14 12 11 8 6 8 9 5 5 5 3 4 4 4 4 3 2 2 2 1 1 1 1 1 1
16 18 18 18 23 25 23 19 15 16 15 13 10 9 10 9 7 6 5 5 7 11 13 14 11 11 13 12 11 12 12 13 13 11 11 11 10 9 8 9 8 7 7 6 7 11 12 12 11 11 10 10 13 16 15 15 15 12 12 13 14 15 14 11 9 10 9 5 5 5 2 3 5 5 4 3 3 3 3 2 2 1 0 1 1
17 18 17 19 25 25 21 18 17 20 19 15 14 12 10 9 9 7 5 5 7 9 11 12 11 11 13 12 11 11 11 13 13 12 12 11 9 10 10 11 9 7 7 6 7 12 14 13 12 11 10 9 13 18 18 16 16 13 13 12 11 13 15 14 12 11 11 8 6 5 4 3 5 6 6 5 5 4 3 3 3 3 1 1 0
18 18 18 18 21 19 17 17 18 21 19 15 16 16 12 10 10 8 6 6 8 8 8 10 11 10 10 11 11 11 12 13 13 13 12 11 11 12 13 11 9 8 7 7 7 12 15 14 13 13 12 9 12 17 18 17 16 14 13 12 10 11 12 14 15 12 12 12 9 6 5 5 6 7 6 6 7 6 5 5 4 3 2 2 2
19 20 22 20 19 18 17 18 18 19 17 15 16 19 16 13 10 7 7 8 8 9 9 8 8 8 8 9 9 9 10 11 11 11 11 11 12 13 12 10 10 9 9 8 9 12 15 15 14 15 13 10 11 14 15 14 15 13 12 11 10 9 9 11 14 14 14 14 13 11 8 6 7 8 8 7 8 8 8 7 6 5 4 4 3
20 20 23 22 21 21 19 19 18 17 16 16 16 18 16 14 13 11 9 8 9 10 8 6 5 6 7 8 9 8 8 9 10 11 11 12 12 12 11 10 10 9 9 9 9 12 14 15 16 16 13 12 12 12 12 13 12 11 11 11 10 9 9 9 10 13 15 16 15 14 13 10 7 9 12 11 9 9 9 8 8 8 7 5 4
20 21 24 23 23 21 20 19 18 17 17 16 15 15 13 14 16 15 12 10 10 10 7 6 6 7 8 9 10 9 9 8 9 11 11 12 12 12 11 10 9 8 8 9 10 11 14 15 16 16 14 12 12 12 11 11 9 8 9 9 9 10 10 9 9 10 13 15 15 14 15 14 10 8 12 14 12 10 9 9 9 9 8 7 6
20 23 26 24 23 21 20 19 17 17 17 17 16 15 16 18 19 18 17 14 12 12 9 9 10 10 10 11 12 12 11 10 9 9 9 10 10 10 9 8 7 8 9 10 11 11 13 15 15 16 16 14 13 12 10 8 7 7 7 8 8 9 9 9 9 9 10 11 12 13 15 16 14 10 8 9 11 10 9 9 10 10 9 9 8
22 26 27 24 24 21 21 20 18 17 17 17 15 15 16 17 18 18 18 16 13 12 12 11 11 11 12 12 13 13 13 12 10 9 8 9 9 9 8 8 7 7 9 10 10 12 14 15 16 18 17 16 13 12 9 7 6 7 8 9 9 8 8 8 9 10 11 11 11 12 14 16 16 13 10 9 9 9 10 11 11 11 11 10 9
24 26 26 24 23 20 20 20 18 18 16 14 12 12 12 13 16 18 18 14 12 13 13 12 11 12 13 12 12 12 11 10 9 8 8 7 8 8 8 7 7 6 6 8 10 12 14 15 17 19 19 17 15 13 11 8 7 9 9 9 8 8 8 8 9 10 11 13 13 12 12 15 18 16 13 11 11 11 12 12 12 12 12 12 11
25 25 25 24 23 20 19 19 18 18 15 13 12 13 13 13 15 17 17 13 12 13 11 11 12 12 13 13 13 13 13 12 11 8 6 5 5 6 7 6 5 4 3 5 8 10 13 15 17 18 18 17 16 15 13 10 10 10 9 8 6 6 6 6 7 7 7 9 12 14 12 13 16 18 17 15 14 14 13 13 13 12 11 12 13
26 26 25 24 23 21 19 18 17 17 17 15 15 16 16 16 16 16 14 11 12 12 9 11 12 13 15 15 14 13 15 15 13 11 7 6 7 6 6 7 7 7 6 5 5 6 9 12 15 17 17 17 16 16 14 12 12 10 8 6 6 6 4 2 4 4 3 3 5 11 13 12 12 13 16 16 13 12 12 12 14 15 14 13 13
29 28 27 26 24 22 20 17 17 17 18 20 20 19 18 18 18 17 14 12 12 11 10 13 13 14 16 17 17 15 15 15 14 13 11 9 9 8 8 10 11 11 10 9 9 8 6 7 9 12 14 17 17 16 14 13 12 11 8 7 6 5 4 4 3 2 2 3 1 3 7 9 9 9 10 10 9 8 9 11 13 16 16 16 16
32 30 28 26 24 22 20 17 16 17 18 21 22 20 18 19 18 17 15 14 13 12 12 14 14 14 15 16 17 17 15 13 12 14 15 13 12 10 8 9 9 10 10 10 10 9 8 7 6 6 9 13 14 13 13 13 12 11 10 9 7 5 4 4 3 1 2 3 3 3 3 4 5 7 7 7 8 7 6 7 9 12 14 16 19
34 31 30 28 25 23 21 18 16 17 18 21 21 19 18 17 15 15 14 13 15 15 13 13 13 14 14 14 15 15 14 12 11 13 15 15 14 12 11 10 9 9 10 10 8 8 9 9 8 7 6 7 8 8 9 10 9 10 11 11 9 7 6 5 4 4 5 4 5 5 4 5 5 6 7 7 8 9 9 7 6 8 10 13 15
35 33 32 30 28 26 24 21 17 16 19 20 20 18 17 16 16 15 14 13 14 15 14 13 13 14 14 14 14 13 12 11 11 12 13 15 14 12 12 12 13 12 12 10 7 7 8 8 8 7 5 4 6 7 7 7 7 7 8 9 9 8 8 7 7 7 7 6 6 4 4 5 5 5 6 7 8 10 11 10 8 7 7 10 11
35 34 33 33 32 29 28 25 19 17 20 21 20 18 17 18 18 17 16 14 13 14 13 12 13 14 14 14 14 14 13 12 12 11 12 14 14 13 11 12 13 15 14 11 9 9 8 8 7 6 5 4 5 6 6 7 6 6 6 6 6 5 4 3 3 2 2 2 2 2 3 4 4 4 5 6 6 8 9 10 11 8 5 7 9
34 34 34 34 35 33 33 29 21 21 24 24 22 19 19 19 19 17 17 15 13 14 14 13 14 14 14 15 14 14 13 12 12 12 12 14 14 13 11 9 10 12 13 11 11 12 11 9 8 6 6 5 6 6 6 8 8 7 8 9 9 7 6 5 5 3 2 2 1 1 1 2 4 5 4 4 6 8 8 8 9 9 7 6 7
34 34 34 35 36 37 37 32 24 24 28 29 26 22 20 20 19 17 16 15 14 15 15 14 14 13 14 15 14 15 14 13 13 13 13 13 12 11 9 9 10 11 12 11 11 11 11 11 10 8 8 6 5 5 5 6 7 7 7 8 8 8 7 6 6 5 4 2 2 3 5 6 7 8 6 6 7 6 5 5 5 6 6 4 3
Wind_Direction
154 153 148 145 152 151 149 141 136 133 130 129 127 129 134 141 144 147 147 141 131 125 121 119 119 118 119 118 113 107 105 110 113 113 111 111 110 108 104 97 94 91 91 91 91 96 105 109 109 107 106 110 121 141 151 155 151 144 136 130 123 118 115 111 111 112 108 102 91 79 70 73 76 76 77 77 78 73 71 75 79 80 79 78 78
156 154 150 145 151 151 149 142 137 133 129 127 125 130 134 140 145 149 151 145 135 129 124 122 120 119 119 120 119 109 103 107 111 113 111 111 110 107 101 96 93 92 94 95 97 96 94 99 106 107 105 108 114 133 142 148 149 143 136 128 122 120 121 121 117 109 105 98 88 76 68 72 76 76 78 79 78 76 75 76 80 81 79 79 79
156 154 149 145 150 150 147 141 136 132 128 126 125 131 135 140 145 151 153 148 140 133 128 124 121 121 118 122 125 115 109 107 109 113 111 110 109 107 100 97 96 94 96 97 102 98 88 90 100 105 106 109 109 125 136 142 144 138 132 127 126 125 125 124 118 110 104 98 84 72 67 70 75 77 79 81 80 79 79 77 78 79 79 78 78
157 152 147 146 149 149 145 140 136 131 128 128 128 132 136 140 145 151 153 150 144 138 130 125 123 122 118 122 127 119 116 113 114 115 110 111 111 111 106 103 101 98 99 100 103 101 95 84 90 103 106 113 113 120 133 141 136 131 129 126 127 124 121 118 114 108 103 100 83 74 71 64 67 76 78 81 82 82 80 78 78 78 79 80 80
156 150 146 146 147 146 143 139 135 132 131 130 129 133 136 141 146 151 153 151 147 141 134 128 126 123 120 123 126 123 120 118 121 119 111 115 116 117 113 109 107 106 104 103 105 104 103 74 77 103 108 118 122 123 132 138 132 130 129 126 124 121 115 108 103 97 94 92 80 84 79 61 54 66 77 81 83 82 81 80 80 80 81 81 82
153 149 146 145 145 144 142 139 136 133 132 131 130 133 137 143 146 150 153 152 149 144 138 131 128 124 123 125 128 127 122 120 122 120 115 116 119 120 116 112 109 111 109 107 107 106 109 84 72 97 107 117 124 129 132 129 129 132 130 127 123 117 109 101 94 86 77 65 72 95 81 54 41 45 70 84 83 81 82 83 82 81 81 80 81
150 146 145 144 142 142 141 139 137 134 133 131 131 132 136 142 145 149 152 152 150 147 142 135 132 127 123 127 130 129 122 118 118 117 117 117 119 121 119 117 117 118 117 115 112 110 111 91 80 101 110 113 118 131 135 123 126 133 130 127 121 115 108 101 95 88 80 69 72 94 62 42 34 37 56 80 83 82 84 82 81 80 80 79 81
146 145 144 143 141 141 141 139 137 135 134 131 130 129 131 137 143 146 149 151 150 147 144 138 135 129 125 127 128 125 118 113 113 114 113 113 114 117 119 126 133 132 129 127 127 128 121 103 110 118 108 96 104 128 139 126 124 133 132 130 123 116 108 105 103 102 105 108 125 235 45 31 23 33 40 71 83 83 84 81 80 80 81 79 81
144 144 143 141 140 141 140 140 137 136 133 131 129 126 125 130 138 142 144 147 146 144 142 138 136 132 127 125 123 117 112 108 108 107 104 105 106 108 111 122 132 133 133 135 143 145 132 130 138 107 76 62 75 113 142 134 128 134 135 132 122 115 111 111 111 115 132 146 148 36 32 12 1 25 31 56 82 84 86 83 83 82 83 81 82
143 144 145 143 141 141 141 140 139 136 133 131 129 126 124 125 131 135 138 141 141 140 138 136 135 132 125 120 118 113 107 103 101 99 99 101 105 107 107 111 117 118 120 121 130 135 129 137 64 8 24 45 74 98 138 137 131 137 140 132 122 117 115 115 118 129 148 137 73 34 8 336 327 1 23 40 76 86 89 87 86 86 85 82 83
147 147 147 143 141 142 142 142 140 137 134 131 129 127 126 124 126 128 131 133 135 135 134 135 134 129 123 119 117 112 107 104 99 94 94 98 103 106 107 108 110 112 112 113 115 124 133 143 83 38 27 44 107 118 138 137 131 140 144 136 126 122 120 122 131 144 142 89 52 6 318 312 314 335 13 36 77 86 89 90 89 90 88 84 85
150 148 147 144 143 144 143 143 141 138 135 131 130 129 127 125 123 124 125 127 130 130 131 132 131 126 122 119 115 110 109 105 100 94 93 96 97 98 103 104 104 105 103 110 115 119 139 150 139 143 64 58 113 140 155 143 130 142 148 141 132 125 123 129 140 146 122 89 58 311 301 304 318 334 2 46 89 89 91 96 95 92 88 86 87
149 149 148 147 145 145 144 144 143 140 136 133 131 130 128 126 125 124 123 125 126 128 129 130 128 124 120 117 114 111 111 105 97 94 98 99 96 97 102 101 94 93 92 97 108 114 126 152 179 199 194 30 19 98 167 153 132 143 152 146 136 128 125 128 140 143 118 107 186 230 267 311 339 349 11 95 104 98 100 103 99 93 91 90 88
149 152 150 149 146 146 146 147 146 141 138 135 133 132 130 129 128 126 125 126 127 128 129 129 126 121 119 116 115 116 116 110 101 96 100 108 108 111 110 97 90 90 89 91 105 111 107 119 148 166 262 342 359 64 172 165 139 144 154 151 141 132 128 127 143 143 121 139 215 227 226 335 341 357 80 125 116 109 110 108 103 96 95 93 90
150 154 153 151 148 148 150 151 147 143 142 138 136 134 133 132 131 130 129 129 129 129 128 127 124 120 119 119 120 120 121 117 111 104 103 115 117 125 121 99 95 98 92 89 107 114 104 101 88 76 73 36 4 148 163 168 144 146 152 151 146 138 134 132 148 148 125 177 237 248 239 339 352 40 125 136 130 122 116 113 109 103 98 95 93
154 156 154 153 151 152 153 152 148 146 145 142 140 137 136 135 133 133 132 132 131 131 130 128 124 121 123 125 126 124 124 122 117 115 114 119 121 134 134 109 103 109 99 87 99 106 97 96 77 70 66 59 53 143 152 138 134 145 148 149 145 141 138 137 155 164 143 200 227 247 262 331 29 101 141 144 143 133 121 118 115 110 103 98 96
155 155 156 156 154 155 154 153 152 151 149 146 142 139 139 138 138 136 136 137 136 135 135 134 129 127 131 132 131 127 125 123 120 120 122 123 125 138 141 128 113 110 100 79 87 98 96 102 95 77 53 43 49 83 134 119 119 139 147 147 143 140 140 143 165 180 176 203 210 243 284 335 58 113 148 153 154 141 127 123 118 116 110 104 102
149 154 157 156 156 156 156 156 156 156 154 151 146 143 143 143 143 142 143 143 142 143 142 142 136 133 134 137 136 130 126 126 125 123 124 124 123 138 141 138 126 116 107 78 83 99 114 115 108 81 44 39 47 67 119 114 114 136 147 147 142 141 141 149 175 183 201 224 225 260 294 325 94 124 152 162 165 147 132 128 123 120 117 112 108
147 154 158 157 157 157 157 158 159 160 157 155 152 149 148 149 149 149 151 151 152 152 152 152 144 141 140 141 140 132 129 129 130 128 125 121 124 143 143 144 139 130 127 105 95 104 137 135 115 72 40 55 55 60 104 112 114 137 148 145 141 138 138 155 178 176 219 249 243 265 293 304 233 157 164 170 174 154 140 135 129 125 123 121 113
148 156 160 159 156 156 158 159 161 164 162 162 160 157 156 156 157 159 162 161 163 163 162 163 157 153 149 149 147 138 138 135 133 131 126 119 124 139 141 152 156 154 156 129 98 109 164 163 130 62 27 75 75 64 86 107 114 140 149 145 142 133 130 151 168 173 229 257 249 288 312 312 283 221 186 175 180 165 148 143 137 132 128 125 119
149 155 160 156 154 158 160 160 164 169 169 168 167 165 164 164 166 168 172 172 174 175 172 173 173 168 163 163 159 149 146 142 138 132 130 120 121 132 133 147 171 168 159 142 88 111 169 172 150 101 58 88 86 73 78 94 107 139 151 148 144 129 116 129 147 185 250 313 329 327 341 328 311 250 194 179 185 178 158 150 145 139 132 128 123
151 155 157 155 157 161 162 163 168 172 173 174 174 173 174 172 174 177 180 182 186 188 183 186 186 181 180 180 173 166 160 156 153 140 129 115 119 144 135 126 150 152 144 132 89 96 146 163 154 127 117 106 93 85 84 90 98 131 153 155 151 137 117 113 151 210 292 330 323 334 349 334 327 295 207 186 193 190 167 157 152 145 137 130 127
154 156 154 154 161 164 164 166 172 175 175 178 179 180 184 180 181 187 190 192 200 200 194 197 195 196 199 195 188 181 181 177 168 157 145 123 134 169 161 139 140 139 138 124 98 122 150 159 154 134 127 120 108 95 88 89 95 120 146 159 166 158 133 121 197 241 296 317 313 322 339 334 329 310 225 199 204 204 179 166 161 152 144 136 132
157 155 151 153 164 165 163 169 175 175 176 180 181 184 189 189 189 192 198 201 209 208 203 206 204 206 211 211 205 197 207 208 194 186 188 167 161 185 189 171 150 143 133 111 110 124 146 157 156 140 130 131 121 98 84 87 96 118 127 144 163 155 138 140 191 241 276 288 294 304 326 330 328 307 230 211 211 212 195 178 170 162 156 150 143
158 154 152 152 161 165 164 171 176 173 175 179 181 187 190 194 194 191 201 208 213 212 210 214 211 212 218 223 218 210 215 215 220 209 204 219 193 188 192 175 152 149 140 118 113 119 127 141 145 142 133 131 127 103 87 97 106 121 118 117 134 129 134 187 208 230 250 263 279 300 323 330 342 350 222 211 206 209 206 193 183 175 171 165 159
160 157 153 149 157 165 165 170 173 170 176 180 182 188 192 196 195 193 203 210 216 215 215 219 216 216 218 222 219 216 217 214 223 221 210 215 199 185 185 172 148 152 147 129 124 126 123 125 132 143 141 135 130 111 96 113 123 125 119 121 117 115 166 217 218 242 256 268 278 301 332 356 28 40 50 38 206 208 208 203 198 190 186 180 175
163 159 154 148 154 157 160 166 164 167 178 183 183 190 197 197 192 197 208 213 218 218 218 219 216 217 215 216 220 220 218 215 218 217 207 203 199 183 183 175 153 168 158 133 136 136 129 127 128 144 155 150 138 123 116 132 140 133 123 134 134 130 184 220 221 255 267 268 280 301 341 18 42 49 56 40 336 229 214 209 207 202 200 195 190
170 163 157 150 152 151 156 159 158 171 183 184 183 191 201 200 195 202 213 218 219 220 220 218 218 220 214 211 220 221 217 214 209 203 198 195 193 182 180 174 168 178 168 138 147 149 138 137 133 143 163 158 149 151 160 163 163 162 153 153 161 161 190 229 214 243 270 265 275 288 341 23 41 47 62 55 37 307 239 219 216 213 210 208 207
172 165 156 145 150 154 155 154 156 173 187 186 183 192 204 205 206 207 212 221 218 217 219 217 221 221 213 209 215 217 212 207 197 189 195 199 185 175 170 162 174 179 169 150 160 167 152 143 138 140 153 154 158 173 180 179 179 180 174 163 164 178 189 202 207 226 256 266 279 285 312 357 19 33 47 52 68 58 286 220 224 226 221 216 216
168 163 154 150 156 157 151 149 151 160 176 181 183 195 207 210 215 210 210 221 218 219 223 215 220 223 214 207 207 209 206 201 192 184 191 199 181 171 172 168 175 177 175 167 170 181 171 154 155 159 153 158 161 163 178 186 190 188 182 169 160 178 190 200 229 236 250 261 279 309 322 334 341 359 20 26 56 92 95 164 218 234 231 225 221
165 161 154 155 158 154 148 151 149 150 166 170 166 174 190 207 221 223 218 218 212 218 224 212 216 225 219 208 209 208 203 198 195 189 190 196 189 182 189 186 180 178 187 183 176 182 185 176 171 171 160 164 168 159 174 182 188 191 190 181 170 175 195 213 230 234 250 260 271 307 336 343 336 326 342 359 9 43 136 148 186 224 232 231 227
173 178 175 166 153 147 148 153 154 151 156 159 156 157 170 186 199 216 224 220 215 217 217 209 210 219 220 209 204 203 199 198 204 204 200 200 199 203 212 204 191 188 194 191 185 185 192 195 188 182 171 169 179 182 184 181 175 187 194 190 178 176 197 223 232 226 239 254 265 288 320 335 338 328 328 333 333 332 265 207 195 198 208 223 235
170 176 179 171 154 147 145 147 156 160 158 158 163 170 175 175 172 186 197 214 224 216 209 212 211 204 209 207 199 200 199 202 215 221 220 214 208 215 228 223 210 209 213 208 200 198 197 194 190 188 182 182 188 187 186 187 186 187 189 186 183 181 188 201 202 210 231 249 255 270 301 311 316 317 325 326 309 307 288 273 230 163 165 200 220
162 163 163 155 150 151 150 149 149 149 151 151 154 168 174 171 173 178 176 200 217 207 200 207 205 189 195 203 203 207 202 202 214 224 228 219 213 220 228 229 225 220 222 224 212 207 203 193 190 191 189 200 199 191 187 189 192 191 187 186 190 191 185 186 184 195 219 242 246 240 253 293 296 295 305 313 303 309 300 288 284 267 184 191 189
167 169 165 154 156 163 168 172 165 154 156 161 162 170 174 169 173 180 187 191 190 194 195 195 192 186 192 197 199 205 202 198 204 214 220 214 216 225 224 228 232 220 215 222 214 207 208 202 197 197 201 208 199 192 192 194 195 193 191 193 198 197 192 194 194 192 203 216 237 240 232 254 274 284 297 302 299 306 304 296 294 291 292 283 280
173 177 175 168 170 178 183 185 182 175 175 179 175 175 173 174 184 187 180 160 157 176 188 189 187 186 194 197 195 194 192 192 191 196 204 208 216 222 222 224 225 221 222 228 217 205 206 205 200 201 206 203 187 190 196 198 198 198 197 197 202 208 204 203 204 204 202 202 210 223 239 251 258 274 288 295 299 303 299 295 293 300 311 312 321
180 185 182 179 181 181 178 171 171 175 173 168 168 172 174 178 178 159 139 127 134 156 159 166 176 173 177 181 183 183 185 192 196 193 196 204 212 218 223 225 224 231 236 234 224 208 202 202 199 199 205 200 184 188 194 196 198 202 205 203 204 209 209 206 206 209 209 209 208 206 215 234 253 268 270 283 303 302 293 288 288 293 302 311 316
186 193 188 182 179 174 167 159 158 162 160 154 155 165 171 169 157 137 132 132 136 149 148 148 159 150 144 147 154 163 173 186 194 193 196 208 216 223 230 231 229 235 237 230 222 209 201 201 199 199 206 204 192 189 190 192 196 203 208 207 208 208 209 210 209 210 213 217 218 212 209 214 234 259 256 260 282 294 293 287 284 288 294 305 308
191 195 188 180 177 171 163 157 156 157 154 147 141 147 148 143 144 143 147 144 128 129 131 138 143 134 132 135 138 146 158 173 182 184 193 208 217 222 226 229 229 228 227 223 218 210 203 203 203 204 208 206 200 196 194 197 198 204 209 211 216 218 217 215 211 215 216 217 221 220 217 215 221 244 251 249 251 263 283 289 286 290 296 301 302
193 191 185 181 180 173 166 162 158 155 147 139 134 137 138 137 144 152 157 155 140 138 145 152 151 148 148 148 150 154 160 167 175 178 183 197 206 209 209 214 218 214 216 219 216 210 207 207 207 209 210 206 202 198 198 204 207 215 223 227 231 231 230 228 227 227 226 224 224 223 222 220 221 227 233 233 233 240 255 265 269 278 288 294 296
192 191 186 184 184 177 169 165 159 156 149 140 133 135 140 143 150 159 164 165 165 166 165 160 155 153 154 156 160 166 171 173 172 173 178 186 194 196 194 202 207 205 208 214 216 212 208 208 207 209 211 208 203 199 202 212 233 247 246 244 248 250 247 248 251 248 241 237 235 232 228 223 223 225 216 210 218 233 243 247 248 255 265 275 283
191 193 191 185 185 181 172 168 161 161 158 144 134 139 148 154 159 166 170 170 172 172 165 163 163 158 156 154 149 148 158 168 163 162 172 180 189 192 189 191 194 196 202 207 214 213 207 207 207 208 211 210 207 209 214 228 256 263 259 257 257 260 264 267 270 268 257 248 244 241 235 227 226 226 223 220 227 235 241 247 251 252 250 248 254
193 196 197 189 186 184 177 173 168 169 165 151 152 160 162 170 173 172 175 173 169 169 160 158 162 155 150 146 135 125 123 135 144 147 151 147 156 179 183 176 165 158 165 188 201 207 205 205 208 209 212 213 214 218 226 240 257 260 262 264 259 261 272 280 286 286 275 258 244 236 235 234 230 227 228 230 231 237 245 254 260 264 260 250 247
195 198 199 194 191 188 184 181 178 177 167 162 177 181 175 178 178 172 174 174 165 160 138 128 135 135 138 141 135 126 122 133 145 147 142 131 126 138 153 143 125 114 104 111 142 169 190 203 209 211 214 218 221 226 235 245 252 252 251 249 248 255 259 270 302 313 313 295 240 230 230 234 237 235 235 236 232 237 252 260 259 262 265 264 263
197 199 200 199 198 194 191 190 191 187 173 174 187 190 185 179 173 167 166 162 152 146 135 127 124 124 132 139 141 139 140 147 153 153 148 136 127 124 134 142 135 125 118 109 110 116 135 175 198 210 217 222 227 233 238 241 244 242 234 229 229 237 242 255 281 326 343 348 347 239 234 239 247 249 246 245 240 240 255 264 263 261 259 259 261
197 198 198 200 203 203 201 197 198 194 184 186 191 191 191 186 181 179 176 165 150 145 144 132 122 122 124 132 143 149 155 158 155 156 159 151 141 137 137 145 146 145 144 134 124 121 122 131 150 180 206 218 224 231 233 233 237 237 232 232 230 226 239 254 259 296 339 339 347 345 307 284 273 263 256 252 250 248 254 264 265 265 261 256 256
198 197 195 197 202 207 205 202 204 201 196 198 195 191 193 194 193 192 186 171 153 145 139 125 120 122 120 124 136 147 157 155 147 153 164 165 160 156 150 146 147 149 151 149 146 151 147 138 139 154 183 204 212 217 222 225 230 232 231 234 239 243 253 260 269 291 304 306 313 321 323 322 309 288 281 275 270 262 254 255 259 263 263 260 261
200 197 196 198 202 205 205 202 202 207 211 210 201 193 193 190 184 180 169 156 147 140 135 127 126 128 124 124 127 131 136 136 139 149 160 166 166 164 163 164 161 156 154 157 168 178 171 160 149 151 165 178 179 186 198 202 205 215 222 229 237 244 255 262 268 281 293 300 309 326 347 342 336 325 309 300 298 288 272 264 262 259 260 261 262
203 203 202 202 202 205 208 206 204 213 220 220 209 197 193 182 168 162 152 147 146 143 143 142 139 134 124 119 118 117 117 116 122 130 144 156 157 153 157 165 170 171 174 179 186 183 178 177 168 160 163 158 156 161 166 163 159 170 178 179 190 197 200 216 229 251 298 340 7 39 32 8 355 349 331 313 305 303 295 279 264 253 242 246 250
206 207 208 206 205 207 210 210 213 222 223 224 218 203 191 174 158 155 154 155 159 154 155 151 142 133 120 115 114 114 115 114 112 111 123 142 150 152 154 151 150 162 174 181 187 186 184 189 193 192 184 166 153 146 138 138 141 152 158 155 159 157 148 147 153 152 143 138 146 122 331 306 307 307 307 298 288 291 298 294 276 267 254 232 231
211 212 214 213 208 209 211 210 211 218 221 225 221 206 188 168 158 163 160 160 167 163 160 154 141 131 124 121 118 118 118 117 116 112 114 127 139 146 146 133 121 128 138 142 156 172 181 193 206 210 200 186 169 157 149 151 157 168 169 165 168 167 163 161 161 165 164 185 223 259 270 272 279 281 281 286 292 300 316 331 319 295 282 261 245